| time (UTC) | temp F | wind direction | speed MPH | gust MPH | rain 1hr in | rain 24hr in | rain mn in | humidity % | barometer mb |
| 20260505024854 | 66 | 339 | 0.0 | 0.0 | 0.00 | 0.00 | 0.00 | 63 | 1005.8 |
| 20260505024351 | 66 | 340 | 0.0 | 0.0 | 0.00 | 0.00 | 0.00 | 63 | 1006.1 |
| 20260505023848 | 67 | 340 | 0.0 | 0.0 | 0.00 | 0.00 | 0.00 | 63 | 1005.8 |
| 20260505023345 | 67 | 340 | 0.0 | 0.0 | 0.00 | 0.00 | 0.00 | 61 | 1005.8 |
| 20260505022842 | 67 | 326 | 0.0 | 0.0 | 0.00 | 0.00 | 0.00 | 62 | 1005.6 |
| 20260505022339 | 67 | 326 | 0.0 | 0.0 | 0.00 | 0.00 | 0.00 | 63 | 1005.4 |
| 20260505021836 | 68 | 326 | 0.0 | 0.0 | 0.00 | 0.00 | 0.00 | 62 | 1005.3 |
| 20260505021332 | 68 | 326 | 0.0 | 1.0 | 0.00 | 0.00 | 0.00 | 61 | 1005.0 |
| 20260505020828 | 68 | 286 | 0.0 | 0.0 | 0.00 | 0.00 | 0.00 | 60 | 1005.1 |
| 20260505020324 | 68 | 286 | 0.0 | 0.0 | 0.00 | 0.00 | 0.00 | 59 | 1005.1 |
| 20260505015821 | 69 | 286 | 0.0 | 0.0 | 0.00 | 0.00 | 0.00 | 59 | 1005.0 |
| 20260505015318 | 69 | 286 | 0.0 | 1.0 | 0.00 | 0.00 | 0.00 | 60 | 1004.8 |
| 20260505014815 | 69 | 286 | 0.0 | 0.0 | 0.00 | 0.00 | 0.00 | 59 | 1004.8 |
| 20260505014312 | 69 | 286 | 0.0 | 0.0 | 0.00 | 0.00 | 0.00 | 58 | 1004.8 |
| 20260505013809 | 69 | 285 | 0.0 | 0.0 | 0.00 | 0.00 | 0.00 | 57 | 1004.8 |
| 20260505013306 | 70 | 286 | 0.0 | 0.0 | 0.00 | 0.00 | 0.00 | 58 | 1004.6 |
| 20260505012805 | 70 | 286 | 0.0 | 0.0 | 0.00 | 0.00 | 0.00 | 57 | 1004.6 |
| 20260505012304 | 70 | 285 | 0.0 | 0.0 | 0.00 | 0.00 | 0.00 | 56 | 1004.7 |
| 20260505011757 | 71 | 285 | 0.0 | 0.0 | 0.00 | 0.00 | 0.00 | 55 | 1004.5 |
| 20260505011255 | 71 | 286 | 0.0 | 0.0 | 0.00 | 0.00 | 0.00 | 55 | 1004.7 |
| 20260505010750 | 71 | 286 | 0.0 | 0.0 | 0.00 | 0.00 | 0.00 | 53 | 1004.7 |
| 20260505010247 | 72 | 286 | 0.0 | 0.0 | 0.00 | 0.00 | 0.00 | 52 | 1004.6 |
| 20260505005743 | 72 | 286 | 0.0 | 0.0 | 0.00 | 0.00 | 0.00 | 50 | 1004.7 |
| 20260505005240 | 73 | 285 | 0.0 | 0.0 | 0.00 | 0.00 | 0.00 | 49 | 1004.6 |
| 20260505004737 | 73 | 285 | 0.0 | 0.0 | 0.00 | 0.00 | 0.00 | 48 | 1004.6 |
| 20260505004233 | 73 | 285 | 0.0 | 0.0 | 0.00 | 0.00 | 0.00 | 48 | 1004.3 |
| 20260505003730 | 73 | 357 | 0.0 | 0.0 | 0.00 | 0.00 | 0.00 | 48 | 1004.5 |
| 20260505003229 | 73 | 321 | 1.0 | 2.0 | 0.00 | 0.00 | 0.00 | 50 | 1004.3 |
| 20260505002724 | 73 | 355 | 0.0 | 1.0 | 0.00 | 0.00 | 0.00 | 49 | 1004.2 |
| 20260505002222 | 74 | 355 | 0.0 | 0.0 | 0.00 | 0.00 | 0.00 | 49 | 1004.6 |
| 20260505001719 | 74 | 18 | 0.0 | 1.0 | 0.00 | 0.00 | 0.00 | 48 | 1004.1 |
| 20260505001217 | 75 | 19 | 0.0 | 0.0 | 0.00 | 0.00 | 0.00 | 47 | 1004.2 |
| 20260505000714 | 75 | 19 | 0.0 | 0.0 | 0.00 | 0.00 | 0.00 | 46 | 1004.3 |
| 20260505000211 | 75 | 19 | 0.0 | 0.0 | 0.00 | 0.00 | 0.00 | 46 | 1004.2 |
| 20260504235708 | 76 | 92 | 0.0 | 0.0 | 0.00 | 0.00 | 0.00 | 44 | 1004.2 |
| 20260504235204 | 76 | 120 | 0.0 | 1.0 | 0.00 | 0.00 | 0.00 | 45 | 1004.0 |
| 20260504234701 | 76 | 293 | 2.0 | 2.0 | 0.00 | 0.00 | 0.00 | 45 | 1004.2 |
| 20260504234158 | 76 | 290 | 0.0 | 2.0 | 0.00 | 0.00 | 0.00 | 44 | 1004.2 |
| 20260504233654 | 77 | 329 | 0.0 | 1.0 | 0.00 | 0.00 | 0.00 | 44 | 1004.1 |
| 20260504233150 | 77 | 337 | 0.0 | 2.0 | 0.00 | 0.00 | 0.00 | 45 | 1004.0 |
| 20260504232648 | 77 | 247 | 0.0 | 1.0 | 0.00 | 0.00 | 0.00 | 46 | 1004.1 |
| 20260504232145 | 78 | 247 | 0.0 | 2.0 | 0.00 | 0.00 | 0.00 | 43 | 1004.3 |
| 20260504231642 | 78 | 295 | 0.0 | 1.0 | 0.00 | 0.00 | 0.00 | 44 | 1004.5 |
| 20260504231138 | 78 | 307 | 1.0 | 2.0 | 0.00 | 0.00 | 0.00 | 43 | 1004.3 |
| 20260504230634 | 78 | 243 | 1.0 | 2.0 | 0.00 | 0.00 | 0.00 | 40 | 1004.5 |
| 20260504230133 | 79 | 100 | 0.0 | 1.0 | 0.00 | 0.00 | 0.00 | 44 | 1004.3 |
| 20260504225631 | 79 | 100 | 0.0 | 1.0 | 0.00 | 0.00 | 0.00 | 43 | 1004.5 |
| 20260504225127 | 80 | 166 | 0.0 | 4.0 | 0.00 | 0.00 | 0.00 | 41 | 1004.2 |
| 20260504224624 | 80 | 318 | 1.0 | 2.0 | 0.00 | 0.00 | 0.00 | 42 | 1004.3 |
| 20260504224120 | 80 | 303 | 1.0 | 2.0 | 0.00 | 0.00 | 0.00 | 42 | 1004.3 |
| 20260504223618 | 80 | 10 | 1.0 | 1.0 | 0.00 | 0.00 | 0.00 | 39 | 1004.0 |
| 20260504223113 | 81 | 161 | 1.0 | 3.0 | 0.00 | 0.00 | 0.00 | 40 | 1004.1 |
| 20260504222611 | 82 | 256 | 0.0 | 1.0 | 0.00 | 0.00 | 0.00 | 40 | 1004.3 |
| 20260504222108 | 82 | 258 | 0.0 | 2.0 | 0.00 | 0.00 | 0.00 | 37 | 1004.1 |
| 20260504221605 | 83 | 271 | 2.0 | 3.0 | 0.00 | 0.00 | 0.00 | 36 | 1004.1 |
| 20260504221101 | 83 | 262 | 1.0 | 2.0 | 0.00 | 0.00 | 0.00 | 36 | 1004.5 |
| 20260504220558 | 82 | 270 | 1.0 | 1.0 | 0.00 | 0.00 | 0.00 | 38 | 1004.2 |
| 20260504220055 | 83 | 299 | 0.0 | 1.0 | 0.00 | 0.00 | 0.00 | 39 | 1004.2 |
| 20260504215552 | 83 | 354 | 0.0 | 3.0 | 0.00 | 0.00 | 0.00 | 39 | 1004.3 |
| 20260504215049 | 84 | 282 | 2.0 | 2.0 | 0.00 | 0.00 | 0.00 | 36 | 1004.2 |
| 20260504214544 | 84 | 278 | 0.0 | 2.0 | 0.00 | 0.00 | 0.00 | 37 | 1004.6 |
| 20260504214041 | 85 | 265 | 1.0 | 2.0 | 0.00 | 0.00 | 0.00 | 38 | 1004.6 |
| 20260504213538 | 85 | 287 | 1.0 | 1.0 | 0.00 | 0.00 | 0.00 | 39 | 1004.1 |
| 20260504213035 | 86 | 342 | 0.0 | 1.0 | 0.00 | 0.00 | 0.00 | 39 | 1004.5 |
| 20260504212531 | 85 | 256 | 0.0 | 2.0 | 0.00 | 0.00 | 0.00 | 44 | 1004.6 |
| 20260504212028 | 84 | 321 | 0.0 | 1.0 | 0.00 | 0.00 | 0.00 | 44 | 1004.7 |
| 20260504211525 | 84 | 247 | 0.0 | 1.0 | 0.00 | 0.00 | 0.00 | 41 | 1004.5 |
| 20260504211022 | 83 | 254 | 0.0 | 2.0 | 0.00 | 0.00 | 0.00 | 43 | 1004.5 |
| 20260504210519 | 83 | 247 | 2.0 | 3.0 | 0.00 | 0.00 | 0.00 | 39 | 1004.3 |
| 20260504210016 | 82 | 284 | 0.0 | 3.0 | 0.00 | 0.00 | 0.00 | 42 | 1004.3 |
| 20260504205514 | 82 | 171 | 1.0 | 2.0 | 0.00 | 0.00 | 0.00 | 40 | 1004.2 |
| 20260504205012 | 83 | 269 | 2.0 | 4.0 | 0.00 | 0.00 | 0.00 | 39 | 1004.5 |
| 20260504204510 | 84 | 135 | 1.0 | 2.0 | 0.00 | 0.00 | 0.00 | 39 | 1004.7 |
| 20260504204008 | 83 | 262 | 0.0 | 1.0 | 0.00 | 0.00 | 0.00 | 43 | 1004.6 |
| 20260504203506 | 83 | 243 | 1.0 | 2.0 | 0.00 | 0.00 | 0.00 | 41 | 1004.6 |
| 20260504203002 | 82 | 358 | 0.0 | 1.0 | 0.00 | 0.00 | 0.00 | 43 | 1004.7 |
| 20260504202458 | 82 | 271 | 1.0 | 1.0 | 0.00 | 0.00 | 0.00 | 43 | 1005.0 |
| 20260504201955 | 82 | 282 | 0.0 | 1.0 | 0.00 | 0.00 | 0.00 | 41 | 1005.1 |
| 20260504201452 | 81 | 295 | 0.0 | 2.0 | 0.00 | 0.00 | 0.00 | 45 | 1004.7 |
| 20260504200950 | 79 | 328 | 0.0 | 1.0 | 0.00 | 0.00 | 0.00 | 46 | 1004.6 |
| 20260504200446 | 78 | 239 | 0.0 | 2.0 | 0.00 | 0.00 | 0.00 | 53 | 1004.5 |
| 20260504195943 | 77 | 9 | 0.0 | 1.0 | 0.00 | 0.00 | 0.00 | 49 | 1004.7 |
| 20260504195439 | 77 | 237 | 0.0 | 1.0 | 0.00 | 0.00 | 0.00 | 48 | 1005.3 |
| 20260504194936 | 75 | 313 | 0.0 | 1.0 | 0.00 | 0.00 | 0.00 | 52 | 1005.0 |
| 20260504194432 | 75 | 13 | 0.0 | 1.0 | 0.00 | 0.00 | 0.00 | 52 | 1005.6 |
| 20260504193928 | 75 | 198 | 0.0 | 1.0 | 0.00 | 0.00 | 0.00 | 49 | 1005.9 |
| 20260504193425 | 76 | 239 | 0.0 | 1.0 | 0.00 | 0.00 | 0.00 | 47 | 1006.2 |
| 20260504192924 | 76 | 168 | 0.0 | 1.0 | 0.00 | 0.00 | 0.00 | 46 | 1006.1 |
| 20260504192421 | 77 | 280 | 0.0 | 3.0 | 0.00 | 0.00 | 0.00 | 45 | 1006.0 |
| 20260504191920 | 78 | 299 | 0.0 | 1.0 | 0.00 | 0.00 | 0.00 | 47 | 1006.0 |
| 20260504191417 | 79 | 257 | 2.0 | 3.0 | 0.00 | 0.00 | 0.00 | 43 | 1006.3 |
| 20260504190912 | 80 | 296 | 1.0 | 3.0 | 0.00 | 0.00 | 0.00 | 43 | 1006.1 |
| 20260504190408 | 80 | 311 | 1.0 | 2.0 | 0.00 | 0.00 | 0.00 | 44 | 1006.1 |
| 20260504185905 | 81 | 286 | 0.0 | 1.0 | 0.00 | 0.00 | 0.00 | 47 | 1006.2 |
| 20260504185402 | 81 | 296 | 0.0 | 1.0 | 0.00 | 0.00 | 0.00 | 44 | 1006.1 |
| 20260504184858 | 80 | 300 | 0.0 | 2.0 | 0.00 | 0.00 | 0.00 | 50 | 1006.2 |
| 20260504184354 | 79 | 252 | 1.0 | 2.0 | 0.00 | 0.00 | 0.00 | 46 | 1006.4 |
| 20260504183850 | 78 | 301 | 1.0 | 3.0 | 0.00 | 0.00 | 0.00 | 45 | 1006.4 |
| 20260504183348 | 78 | 294 | 0.0 | 1.0 | 0.00 | 0.00 | 0.00 | 49 | 1006.0 |
| 20260504182845 | 78 | 269 | 2.0 | 2.0 | 0.00 | 0.00 | 0.00 | 44 | 1006.4 |
| 20260504182343 | 78 | 312 | 0.0 | 1.0 | 0.00 | 0.00 | 0.00 | 47 | 1006.3 |
| 20260504181839 | 79 | 327 | 1.0 | 3.0 | 0.00 | 0.00 | 0.00 | 43 | 1006.3 |
| 20260504181337 | 80 | 118 | 1.0 | 2.0 | 0.00 | 0.00 | 0.00 | 45 | 1006.4 |
| 20260504180836 | 81 | 281 | 1.0 | 2.0 | 0.00 | 0.00 | 0.00 | 42 | 1006.4 |
| 20260504180333 | 82 | 306 | 0.0 | 3.0 | 0.00 | 0.00 | 0.00 | 42 | 1006.4 |
| 20260504175831 | 82 | 78 | 0.0 | 1.0 | 0.00 | 0.00 | 0.00 | 46 | 1006.2 |
| 20260504175328 | 83 | 272 | 1.0 | 4.0 | 0.00 | 0.00 | 0.00 | 39 | 1006.3 |
| 20260504174826 | 83 | 267 | 0.0 | 1.0 | 0.00 | 0.00 | 0.00 | 41 | 1006.3 |
| 20260504174323 | 83 | 288 | 2.0 | 3.0 | 0.00 | 0.00 | 0.00 | 41 | 1006.5 |
| 20260504173820 | 83 | 67 | 0.0 | 2.0 | 0.00 | 0.00 | 0.00 | 39 | 1006.5 |
| 20260504173317 | 84 | 96 | 1.0 | 3.0 | 0.00 | 0.00 | 0.00 | 38 | 1006.4 |
| 20260504172814 | 84 | 66 | 0.0 | 2.0 | 0.00 | 0.00 | 0.00 | 41 | 1006.3 |
| 20260504172310 | 84 | 324 | 1.0 | 1.0 | 0.00 | 0.00 | 0.00 | 40 | 1006.5 |
| 20260504171806 | 83 | 27 | 0.0 | 1.0 | 0.00 | 0.00 | 0.00 | 43 | 1006.4 |
| 20260504171304 | 82 | 264 | 2.0 | 3.0 | 0.00 | 0.00 | 0.00 | 39 | 1006.5 |
| 20260504170801 | 82 | 163 | 1.0 | 2.0 | 0.00 | 0.00 | 0.00 | 40 | 1006.7 |
| 20260504170258 | 81 | 207 | 1.0 | 2.0 | 0.00 | 0.00 | 0.00 | 40 | 1006.6 |
| 20260504160216 | 77 | 307 | 1.0 | 2.0 | 0.00 | 0.00 | 0.00 | 45 | 1006.8 |
| 20260504151144 | 73 | 258 | 1.0 | 2.0 | 0.00 | 0.00 | 0.00 | 46 | 1007.1 |
| 20260504150641 | 73 | 267 | 1.0 | 1.0 | 0.00 | 0.00 | 0.00 | 50 | 1007.3 |
| 20260504150138 | 72 | 266 | 0.0 | 2.0 | 0.00 | 0.00 | 0.00 | 48 | 1007.4 |
| 20260504141107 | 69 | 339 | 0.0 | 1.0 | 0.00 | 0.00 | 0.00 | 54 | 1008.2 |
| 20260504140604 | 69 | 270 | 0.0 | 1.0 | 0.00 | 0.00 | 0.00 | 56 | 1008.1 |
| 20260504130527 | 63 | 27 | 0.0 | 1.0 | 0.00 | 0.00 | 0.00 | 64 | 1008.6 |
| 20260504110415 | 57 | 128 | 0.0 | 0.0 | 0.00 | 0.00 | 0.00 | 69 | 1008.7 |
| 20260504100332 | 59 | 207 | 0.0 | 0.0 | 0.00 | 0.00 | 0.00 | 68 | 1008.8 |
| 20260504081726 | 59 | 76 | 0.0 | 0.0 | 0.00 | 0.00 | 0.00 | 66 | 1009.0 |
| 20260504081222 | 59 | 76 | 0.0 | 0.0 | 0.00 | 0.00 | 0.00 | 66 | 1008.9 |
| 20260504080718 | 59 | 76 | 0.0 | 0.0 | 0.00 | 0.00 | 0.00 | 66 | 1009.0 |
| 20260504080215 | 59 | 76 | 0.0 | 0.0 | 0.00 | 0.00 | 0.00 | 67 | 1008.9 |
| 20260504070142 | 60 | 76 | 0.0 | 0.0 | 0.00 | 0.00 | 0.00 | 64 | 1009.4 |
| 20260504050531 | 60 | 83 | 0.0 | 0.0 | 0.00 | 0.00 | 0.00 | 60 | 1010.4 |
| 20260504045525 | 60 | 97 | 0.0 | 0.0 | 0.00 | 0.00 | 0.00 | 61 | 1010.3 |
| 20260504045020 | 60 | 97 | 0.0 | 0.0 | 0.00 | 0.00 | 0.00 | 60 | 1010.6 |
| 20260504044518 | 60 | 97 | 0.0 | 0.0 | 0.00 | 0.00 | 0.00 | 61 | 1010.4 |
| 20260504044015 | 60 | 97 | 0.0 | 0.0 | 0.00 | 0.00 | 0.00 | 60 | 1010.6 |
| 20260504043512 | 60 | 97 | 0.0 | 0.0 | 0.00 | 0.00 | 0.00 | 60 | 1010.6 |
| 20260504043010 | 60 | 97 | 0.0 | 0.0 | 0.00 | 0.00 | 0.00 | 60 | 1010.6 |
| 20260504042506 | 60 | 97 | 0.0 | 0.0 | 0.00 | 0.00 | 0.00 | 59 | 1010.7 |
| 20260504042003 | 60 | 97 | 0.0 | 0.0 | 0.00 | 0.00 | 0.00 | 59 | 1010.6 |
| 20260504041459 | 60 | 97 | 0.0 | 0.0 | 0.00 | 0.00 | 0.00 | 59 | 1010.7 |
| 20260504040955 | 60 | 97 | 0.0 | 0.0 | 0.00 | 0.00 | 0.00 | 59 | 1010.7 |
| 20260504040453 | 60 | 97 | 0.0 | 0.0 | 0.00 | 0.00 | 0.00 | 58 | 1010.9 |
| 20260504035948 | 60 | 97 | 0.0 | 0.0 | 0.00 | 0.00 | 0.00 | 58 | 1010.9 |
| 20260504035446 | 61 | 97 | 0.0 | 0.0 | 0.00 | 0.00 | 0.00 | 59 | 1010.7 |
| 20260504034942 | 61 | 97 | 0.0 | 0.0 | 0.00 | 0.00 | 0.00 | 59 | 1011.0 |
| 20260504034440 | 61 | 97 | 0.0 | 0.0 | 0.00 | 0.00 | 0.00 | 59 | 1010.9 |
| 20260504033937 | 61 | 97 | 0.0 | 0.0 | 0.00 | 0.00 | 0.00 | 58 | 1011.0 |
| 20260504033435 | 61 | 97 | 0.0 | 0.0 | 0.00 | 0.00 | 0.00 | 58 | 1011.1 |
| 20260504032932 | 62 | 97 | 0.0 | 0.0 | 0.00 | 0.00 | 0.00 | 58 | 1011.2 |
| 20260504032429 | 62 | 97 | 0.0 | 0.0 | 0.00 | 0.00 | 0.00 | 57 | 1011.2 |
| 20260504031925 | 62 | 97 | 0.0 | 0.0 | 0.00 | 0.00 | 0.00 | 57 | 1011.3 |
| 20260504031422 | 62 | 97 | 0.0 | 0.0 | 0.00 | 0.00 | 0.00 | 57 | 1011.0 |
| 20260504030919 | 62 | 97 | 0.0 | 0.0 | 0.00 | 0.00 | 0.00 | 58 | 1011.2 |
| 20260504030416 | 62 | 97 | 0.0 | 0.0 | 0.00 | 0.00 | 0.00 | 56 | 1011.2 |
| 20260504025912 | 62 | 97 | 0.0 | 0.0 | 0.00 | 0.00 | 0.00 | 56 | 1011.2 |
| 20260504025409 | 62 | 97 | 0.0 | 0.0 | 0.00 | 0.00 | 0.00 | 55 | 1011.4 |